{"data":{"norad_id":59930,"intl_designator":"2024-106J","name":"STARLINK-31956","alt_names":[],"object_type":"PAYLOAD","status":"ACTIVE","operator":null,"country":"US","launch_date":"2024-06-01","launch_site_code":"AFETR","launch_vehicle":null,"mission":null,"orbit_class":"UNKNOWN","rcs_meters":null,"size_class":null,"mass_kg":null,"dimensions":null,"purposes":["comms"],"wikipedia_slug":null,"has_3d_model":false,"image_url":null,"decayed_at":null,"tle_current":{"epoch":"2026-05-24T16:07:01.275456Z","epoch_age_seconds":114149,"freshness":"FRESH","line1":"1 59930U 24106J   26144.67154254  .00000275  00000+0  19500-4 0  9992","line2":"2 59930  43.0000 263.3872 0001290 264.2691  95.8014 15.27575867112147","mean_motion":15.27575867,"eccentricity":0.000129,"inclination_deg":43,"raan_deg":263.3872,"arg_perigee_deg":264.2691,"mean_anomaly_deg":95.8014,"bstar":1.95e-5,"rev_number":11214,"period_min":94.267003761195,"perigee_km":482.17637715354,"apogee_km":483.94656635925,"semimajor_km":6861.1984717564,"source":"CELESTRAK","updated_at":"2026-05-25T13:38:19.123318Z"}}}